Location: Harbor Island
(32.3990°N, 80.4435°W)
Time: 21:51:24
(UTC-05:00)

Daily predictions for brighter satellites

Satellite Brightness Start Highest point End
(mag) Time Altitude Azimuth Time Altitude Azimuth Time Altitude Azimuth
Cosmos 1346 Rocket 4.2 17:37:40 10° SE 17:40:32 20° E 17:43:23 10° NE
SL-8 Rocket 4.0 17:36:11 10° N 17:42:18 65° E 17:48:23 10° SSE
IDEFIX/ARIANE 42P 2.7 17:38:22 10° SSE 17:43:26 55° ENE 17:48:30 10° N
CORIOLIS 4.4 17:38:42 10° SSE 17:43:53 50° ENE 17:49:06 10° N
Cosmos 1844 3.9 17:39:19 10° SSW 17:44:52 74° WNW 17:50:26 10° NNE
ATLAS 2AS CENTAUR R/B 3.2 17:40:56 10° NNW 17:48:40 49° NE 17:55:49 10° SE
ASTRO F (AKARI) 4.5 17:46:09 10° NNE 17:49:12 48° E 17:52:16 10° S
Cosmos 1455 Rocket 3.4 17:47:00 10° N 17:51:14 44° E 17:55:28 10° SSE
BREEZE-M DEB (TANK) 3.2 17:46:07 10° NW 17:51:54 70° NE 17:55:29 10° ESE
SKYMED 2 4.3 17:48:24 10° NE 17:52:19 32° E 17:56:12 10° SSE
CZ-3B DEB 2.7 17:50:04 10° WSW 17:53:02 39° NNW 17:59:47 10° NE
Cosmos 2366 rocket 4.1 17:47:20 10° N 17:53:34 58° E 17:59:43 10° SSE
KM-V1 3.9 17:52:41 10° WSW 17:54:58 36° S 17:56:45 11° E
MSX 4.0 17:50:37 10° SE 17:56:08 50° ENE 18:01:39 10° N
Delta 2 Rocket 3.4 17:53:34 10° WSW 17:57:14 64° SSE 18:00:59 12° ENE
Cosmos 1959 Rocket 4.5 17:51:06 10° N 17:57:18 72° E 18:03:32 10° SSE
Cosmos 2218 Rocket 4.0 17:51:57 10° N 17:58:14 73° E 18:04:23 10° SSE
CZ-4 R/B 1.9 17:56:15 10° S 18:00:26 67° W 18:04:34 10° NNW
SMAP 3.0 17:56:41 10° SSE 18:01:19 88° ENE 18:05:59 10° NNW
Cosmos 2278 Rocket 2.2 17:55:42 10° SSW 18:01:20 89° ESE 18:07:01 10° NNE
Thor Agena Rocket 4.2 17:59:20 10° N 18:04:27 59° WNW 18:09:36 10° SSW
Cosmos 1238 Rocket 2.7 18:02:05 10° SSW 18:05:02 57° W 18:07:57 10° N
SJ-12 4.3 18:01:37 10° S 18:05:39 69° WSW 18:09:45 10° NNW
SL-24 DEB 4.3 18:02:29 10° NNE 18:07:09 59° E 18:11:45 10° S
CZ-2C R/B 2.6 18:02:37 10° S 18:07:30 79° WSW 18:12:37 10° NNW
OTV 4 0.6 18:05:06 10° WNW 18:08:05 71° SSW 18:11:02 10° ESE
MONITOR-E 4.4 18:07:32 10° SSE 18:10:36 48° ENE 18:13:41 10° N
Cosmos 1975 3.0 18:09:36 10° N 18:13:34 50° E 18:17:28 10° SSE
COSMOS 2406 4.4 18:08:35 10° NNW 18:14:03 47° WSW 18:19:31 10° S
Meteor 1-12 Rocket 4.3 18:08:45 10° N 18:14:33 71° E 18:20:26 10° SSE
Cosmos 2251 Rocket 3.5 18:10:32 10° NNW 18:15:54 82° ENE 18:21:12 10° SSE
COSMOS 2441 4.3 18:14:14 10° SSE 18:19:03 69° ENE 18:23:54 10° N
SL-27 R/B 3.5 18:18:47 10° NNW 18:22:19 50° WSW 18:25:49 10° S
Cosmos 1484 Rocket 2.6 18:23:00 10° SSE 18:26:45 65° ENE 18:30:27 10° N
Meteor 1-13 Rocket 4.2 18:23:28 10° S 18:28:59 61° E 18:34:39 10° NNE
Cosmos 2082 Rocket 3.0 18:26:39 10° N 18:31:27 28° ENE 18:33:41 21° E
NOSS 2-1 (D) 3.3 18:28:02 10° SSW 18:31:47 56° ESE 18:33:30 29° NE
NOSS 2-1 (C) 3.3 18:28:44 10° SSW 18:32:29 55° ESE 18:34:09 30° NE
DMSP B5D1-3 4.4 18:27:23 10° NNE 18:32:32 72° ESE 18:37:37 10° S
Cosmos 1833 Rocket 3.6 18:28:31 10° N 18:33:02 24° ENE 18:33:05 24° ENE
Cosmos 1743 3.8 18:35:16 26° ESE 18:35:16 26° ESE 18:37:36 10° SE
Meteor 2-21 4.4 18:29:01 10° N 18:35:09 68° E 18:41:14 10° SSE
COSMO-SKYMED 1 3.0 18:36:04 10° N 18:40:22 62° WNW 18:44:38 10° SSW
Cosmos 1500 3.2 18:39:51 10° N 18:43:42 79° W 18:47:31 10° S
GRACE-2 4.1 18:43:00 10° S 18:45:46 68° W 18:46:42 36° NNW
Nadezhda 3 Rocket 4.0 18:39:47 10° S 18:45:57 85° W 18:52:14 10° N
GRACE-1 4.2 18:43:26 10° S 18:46:11 65° W 18:47:12 34° NNW
Meteor 1-28 Rocket 3.1 18:45:29 21° N 18:47:59 89° WNW 18:51:46 10° SSW
Timation 1 Rocket 4.3 18:45:04 10° SSW 18:51:01 89° ESE 18:55:27 19° NNE
NOSS 2-1 (E) 3.1 18:47:12 10° SSW 18:51:02 86° ESE 18:52:08 46° NNE
GEOS 3 Rocket 3.7 18:53:31 33° ESE 18:55:27 51° NE 19:00:23 10° NNW
Meteor 2-4 Rocket 3.6 18:50:38 10° S 18:55:56 60° E 18:58:30 30° NNE
Meteor 2-14 Rocket 4.3 18:51:01 10° N 18:57:11 75° E 19:03:17 10° S
Tiangong 1 2.7 18:54:55 10° W 18:57:12 25° NNW 18:57:12 25° NNW
CZ-3B R/B 4.5 18:55:49 10° SW 18:57:52 14° SSW 18:58:18 14° S
Cosmos 2056 Rocket 3.7 18:55:00 10° S 19:00:10 50° ESE 19:00:49 47° ENE
Cosmos 1025 Rocket 2.9 19:02:20 10° S 19:06:41 85° E 19:07:27 60° NNE
Cosmos 921 Rocket 4.0 19:08:27 10° SW 19:12:28 44° WNW 19:14:34 25° NNW
ATLAS 3B CENTAUR R/B 3.4 18:54:19 10° W 19:12:52 70° S 19:15:57 39° ESE
COSMOS 2487 3.5 19:10:23 10° NNW 19:12:59 41° NW 19:12:59 41° NW
Cosmos 1624 Rocket 3.8 19:08:48 10° S 19:13:58 76° ESE 19:14:32 67° NE
Cosmos 1371 Rocket 4.1 19:13:02 10° SSW 19:18:22 78° WNW 19:20:09 43° N
Meteor 2-16 Rocket 4.5 19:13:47 10° N 19:19:52 77° W 19:25:55 10° S
Cosmos 1934 Rocket 4.2 19:42:18 10° NNW 19:48:27 67° W 19:54:41 10° S
Cosmos 2082 Rocket 3.7 20:10:28 10° NW 20:15:28 33° WSW 20:15:50 32° WSW
Cosmos 1833 Rocket 4.3 20:11:50 10° NW 20:14:56 28° WNW 20:14:56 28° WNW
